Izmir, Turkey

8:40 PM +03 on April 29, 2017 (GMT +0300)
Izmir

Weather History for LTBJ - October, 2013

Change the Weather History Date:

Friday, October 4, 2013

  Actual Average Record
Temperature  
Mean Temperature 52 °F -  
Max Temperature 59 °F 72 °F 87 °F (2000)
Min Temperature 46 °F 51 °F 46 °F (2013)
Degree Days  
Heating Degree Days 12    
Growing Degree Days 2 (Base 50)    
Moisture  
Dew Point 28 °F    
Average Humidity 40    
Maximum Humidity 62    
Minimum Humidity 17    
Precipitation  
Precipitation 0.00 in - - ()
Sea Level Pressure  
Sea Level Pressure 30.26 in    
Wind  
Wind Speed 15 mph ()    
Max Wind Speed 24 mph    
Max Gust Speed 37 mph    
Visibility 6.6 miles    
Events      
Averages and records for this station are not official NWS values.
T = Trace of Precipitation, MM = Missing Value Source: Averaged Metar Reports

Daily Weather History Graph

Daily Weather History Graph

Search for Another Location

Airport or City:

Trip Planner

Search our weather history database for the weather conditions in past years. The results will help you decide how hot, cold, wet, or windy it might be!

Date:

Astronomy

Oct. 04, 2013 Rise Set
Actual Time 7:09 AM EEST 6:49 PM EEST
Civil Twilight 6:43 AM EEST 7:16 PM EEST
Nautical Twilight 6:12 AM EEST 7:46 PM EEST
Astronomical Twilight 5:42 AM EEST 8:17 PM EEST
Moon 6:25 AM EEST (10/4) 6:21 PM EEST (10/4)
Length of Visible Light 12h 32m
Length of Day
11h 39m
Waning Crescent, 1% of the Moon is Illuminated
Oct 4
Waning Crescent
Oct 5
New
Oct 12
First Quarter
Oct 19
Full
Oct 27
Last Quarter

Hourly Weather History & Observations

Time (EEST) Temp. Windchill Dew Point Humidity Pressure Visibility Wind Dir Wind Speed Gust Speed Precip Events Conditions
12:20 AM 50.0 °F - 32.0 °F 50% 30.21 in - North 12.7 mph - N/A   Clear
12:50 AM 50.0 °F - 32.0 °F 50% 30.21 in - North 11.5 mph - N/A   Clear
1:20 AM 50.0 °F - 32.0 °F 50% 30.21 in - North 12.7 mph - N/A   Clear
1:50 AM 50.0 °F - 30.2 °F 47% 30.21 in - North 17.3 mph - N/A   Clear
2:20 AM 50.0 °F - 32.0 °F 50% 30.24 in - North 16.1 mph - N/A   Clear
2:50 AM 48.2 °F - 32.0 °F 54% 30.24 in - North 16.1 mph - N/A   Clear
3:00 AM 49 °F - 32 °F 39% 30.25 in 9 mi North 16.1 mph - -  
3:20 AM 48.2 °F - 32.0 °F 54% 30.21 in - North 13.8 mph - N/A   Clear
3:50 AM 48.2 °F - 32.0 °F 54% 30.21 in - North 16.1 mph - N/A   Clear
4:20 AM 48.2 °F - 32.0 °F 54% 30.24 in - North 16.1 mph - N/A   Clear
4:50 AM 48.2 °F - 32.0 °F 54% 30.24 in - North 12.7 mph - N/A   Clear
5:20 AM 48.2 °F - 32.0 °F 54% 30.24 in - North 13.8 mph - N/A   Clear
5:50 AM 48.2 °F - 32.0 °F 54% 30.24 in - North 16.1 mph - N/A   Clear
6:20 AM 46.4 °F 40.1 °F 33.8 °F 62% 30.24 in - North 15.0 mph - N/A   Clear
7:20 AM 46.4 °F 40.7 °F 33.8 °F 62% 30.27 in - North 12.7 mph - N/A   Clear
7:50 AM 46.4 °F 40.4 °F 33.8 °F 62% 30.27 in - North 13.8 mph - N/A   Clear
8:50 AM 50.0 °F - 33.8 °F 54% 30.27 in 6.2 mi North 13.8 mph - N/A   Partly Cloudy
9:20 AM 51.8 °F - 32.0 °F 47% 30.30 in 6.2 mi NNE 15.0 mph - N/A   Partly Cloudy
9:50 AM 53.6 °F - 28.4 °F 38% 30.30 in 6.2 mi NNE 16.1 mph - N/A   Partly Cloudy
10:20 AM 55.4 °F - 24.8 °F 31% 30.30 in 6.2 mi NNE 16.1 mph - N/A   Partly Cloudy
10:50 AM 55.4 °F - 26.6 °F 33% 30.30 in 6.2 mi North 18.4 mph - N/A   Partly Cloudy
11:20 AM 55.4 °F - 28.4 °F 36% 30.30 in 6.2 mi NNE 16.1 mph - N/A   Partly Cloudy
11:50 AM 57.2 °F - 26.6 °F 31% 30.30 in 6.2 mi NNE 16.1 mph - N/A   Partly Cloudy
12:20 PM 57.2 °F - 24.8 °F 29% 30.30 in 6.2 mi NNE 21.9 mph - N/A   Partly Cloudy
12:50 PM 57.2 °F - 24.8 °F 29% 30.30 in 6.2 mi NNE 21.9 mph 33.4 mph N/A   Partly Cloudy
1:20 PM 57.2 °F - 26.6 °F 31% 30.30 in 6.2 mi NNE 21.9 mph 34.5 mph N/A   Partly Cloudy
1:50 PM 57.2 °F - 24.8 °F 29% 30.27 in 6.2 mi NNE 20.7 mph - N/A   Partly Cloudy
2:20 PM 59.0 °F - 26.6 °F 29% 30.27 in 6.2 mi NNE 23.0 mph 36.8 mph N/A   Partly Cloudy
2:50 PM 59.0 °F - 24.8 °F 27% 30.27 in 6.2 mi NNE 19.6 mph 31.1 mph N/A   Partly Cloudy
3:00 PM 58 °F - 25 °F 17% 30.28 in 9 mi NNE 19.6 mph - -   Scattered Clouds
3:20 PM 59.0 °F - 24.8 °F 27% 30.27 in 6.2 mi NNE 21.9 mph 33.4 mph N/A   Partly Cloudy
3:50 PM 59.0 °F - 24.8 °F 27% 30.24 in 6.2 mi NNE 24.2 mph 35.7 mph N/A   Partly Cloudy
4:20 PM 59.0 °F - 23.0 °F 25% 30.24 in 6.2 mi NNE 21.9 mph - N/A   Partly Cloudy
4:50 PM 59.0 °F - 23.0 °F 25% 30.24 in 6.2 mi NNE 20.7 mph 32.2 mph N/A   Partly Cloudy
5:20 PM 59.0 °F - 23.0 °F 25% 30.24 in - NNE 23.0 mph - N/A   Clear
5:50 PM 57.2 °F - 23.0 °F 27% 30.24 in - NNE 19.6 mph - N/A   Clear
6:20 PM 55.4 °F - 23.0 °F 29% 30.24 in - NNE 19.6 mph - N/A   Clear
6:50 PM 55.4 °F - 23.0 °F 29% 30.27 in - NNE 17.3 mph - N/A   Clear
7:20 PM 53.6 °F - 23.0 °F 30% 30.27 in - NNE 17.3 mph - N/A   Clear
7:50 PM 53.6 °F - 23.0 °F 30% 30.27 in - NNE 15.0 mph - N/A   Clear
8:20 PM 51.8 °F - 24.8 °F 35% 30.27 in - NNE 16.1 mph - N/A   Clear
8:50 PM 51.8 °F - 26.6 °F 38% 30.27 in - NNE 17.3 mph - N/A   Clear
9:00 PM 51 °F - 26 °F 25% 30.30 in 9 mi NNE 17.3 mph - -  
9:20 PM 50.0 °F - 26.6 °F 40% 30.30 in - NNE 15.0 mph - N/A   Clear
9:50 PM 50.0 °F - 28.4 °F 43% 30.30 in - NNE 17.3 mph - N/A   Clear
10:20 PM 48.2 °F - 28.4 °F 46% 30.30 in - NNE 18.4 mph - N/A   Clear
10:50 PM 48.2 °F - 30.2 °F 50% 30.30 in - NNE 19.6 mph - N/A   Clear
11:20 PM 48.2 °F - 30.2 °F 50% 30.30 in - NNE 17.3 mph - N/A   Clear
11:50 PM 48.2 °F - 30.2 °F 50% 30.30 in - North 16.1 mph - N/A   Clear